Rodez, France

7:05 AM CEST on June 26, 2017 (GMT +0200)
Marcillac

Weather History for LFCR - April, 2013

Change the Weather History Date:

Monday, April 22, 2013

  Actual Average Record
Temperature  
Mean Temperature 45 °F -  
Max Temperature 57 °F - - ()
Min Temperature 33 °F - - ()
Degree Days  
Heating Degree Days 20    
Moisture  
Dew Point 35 °F    
Average Humidity 64    
Maximum Humidity 87    
Minimum Humidity 41    
Precipitation  
Precipitation 0.00 in - - ()
Sea Level Pressure  
Sea Level Pressure 30.07 in    
Wind  
Wind Speed 8 mph ()    
Max Wind Speed 17 mph    
Max Gust Speed -    
Visibility 6.2 miles    
Events      
T = Trace of Precipitation, MM = Missing Value Source: Averaged Metar Reports

Daily Weather History Graph

Daily Weather History Graph

Search for Another Location

Airport or City:

Trip Planner

Search our weather history database for the weather conditions in past years. The results will help you decide how hot, cold, wet, or windy it might be!

Date:

Astronomy

Apr. 22, 2013 Rise Set
Actual Time 6:54 AM CEST 8:43 PM CEST
Civil Twilight 6:23 AM CEST 9:14 PM CEST
Nautical Twilight 5:45 AM CEST 9:52 PM CEST
Astronomical Twilight 5:05 AM CEST 10:33 PM CEST
Moon 5:08 PM CEST (4/22) 4:49 AM CEST (4/22)
Length of Visible Light 14h 50m
Length of Day
13h 48m
Waxing Gibbous, 86% of the Moon is Illuminated
Apr 22
Waxing Gibbous
Apr 25
Full
May 2
Last Quarter
May 10
New
May 18
First Quarter

Hourly Weather History & Observations

Time (CEST) Temp. Windchill Dew Point Humidity Pressure Visibility Wind Dir Wind Speed Gust Speed Precip Events Conditions
12:00 AM 48.2 °F - 37.4 °F 66% 30.09 in 6.2 mi WNW 6.9 mph - N/A   Overcast
12:30 AM 46.4 °F 42.9 °F 37.4 °F 71% 30.09 in 6.2 mi WNW 6.9 mph - N/A   Unknown
1:00 AM 46.4 °F 43.5 °F 37.4 °F 71% 30.09 in 6.2 mi NW 5.8 mph - N/A   Unknown
1:30 AM 46.4 °F 42.9 °F 37.4 °F 71% 30.09 in 6.2 mi NW 6.9 mph - N/A   Overcast
2:00 AM 46.4 °F 41.1 °F 37.4 °F 71% 30.09 in 6.2 mi WNW 11.5 mph - N/A   Overcast
2:30 AM 46.4 °F 41.9 °F 35.6 °F 66% 30.06 in 6.2 mi NW 9.2 mph - N/A   Unknown
3:00 AM 44.6 °F 39.7 °F 33.8 °F 66% 30.06 in 6.2 mi NW 9.2 mph - N/A   Unknown
3:30 AM 44.6 °F 40.2 °F 33.8 °F 66% 30.06 in 6.2 mi WNW 8.1 mph - N/A   Unknown
4:00 AM 39.2 °F 34.2 °F 32.0 °F 75% 30.06 in 6.2 mi WNW 6.9 mph - N/A   Unknown
4:30 AM 37.4 °F 32.8 °F 32.0 °F 81% 30.06 in 6.2 mi West 5.8 mph - N/A   Unknown
5:00 AM 37.4 °F 33.8 °F 32.0 °F 81% 30.06 in 6.2 mi West 4.6 mph - N/A   Unknown
5:30 AM 35.6 °F 32.8 °F 32.0 °F 87% 30.06 in 6.2 mi West 3.5 mph - N/A   Unknown
6:00 AM 33.8 °F 30.8 °F 30.2 °F 87% 30.04 in 6.2 mi WSW 3.5 mph - N/A   Unknown
6:30 AM 33.8 °F 29.6 °F 30.2 °F 87% 30.04 in 6.2 mi West 4.6 mph - N/A   Unknown
7:00 AM 33.8 °F 28.6 °F 28.4 °F 81% 30.06 in 6.2 mi West 5.8 mph - N/A   Unknown
7:30 AM 33.8 °F 29.6 °F 30.2 °F 87% 30.06 in 6.2 mi West 4.6 mph - N/A   Unknown
8:00 AM 37.4 °F 32.1 °F 32.0 °F 81% 30.06 in 6.2 mi West 6.9 mph - N/A   Unknown
8:30 AM 39.2 °F 35.0 °F 33.8 °F 81% 30.06 in 6.2 mi West 5.8 mph - N/A   Unknown
9:00 AM 41.0 °F 37.1 °F 33.8 °F 76% 30.06 in 6.2 mi West 5.8 mph - N/A   Unknown
9:30 AM 42.8 °F 38.6 °F 35.6 °F 76% 30.09 in 6.2 mi WNW 6.9 mph - N/A   Unknown
10:00 AM 44.6 °F 40.2 °F 33.8 °F 66% 30.06 in 6.2 mi West 8.1 mph - N/A   Unknown
10:30 AM 44.6 °F 39.7 °F 37.4 °F 76% 30.09 in 6.2 mi NW 9.2 mph - N/A   Unknown
11:00 AM 46.4 °F 41.5 °F 39.2 °F 76% 30.09 in 6.2 mi WNW 10.4 mph - N/A   Unknown
11:30 AM 48.2 °F - 37.4 °F 66% 30.09 in 6.2 mi WNW 10.4 mph - N/A   Unknown
12:00 PM 50.0 °F - 37.4 °F 62% 30.09 in 6.2 mi WNW 11.5 mph - N/A   Partly Cloudy
12:30 PM 51.8 °F - 35.6 °F 54% 30.09 in 6.2 mi NW 13.8 mph - N/A   Unknown
1:00 PM 53.6 °F - 35.6 °F 51% 30.06 in 6.2 mi WNW 13.8 mph - N/A   Partly Cloudy
1:30 PM 53.6 °F - 35.6 °F 51% 30.06 in 6.2 mi WNW 13.8 mph - N/A   Mostly Cloudy
2:00 PM 53.6 °F - 35.6 °F 51% 30.06 in 6.2 mi West 15.0 mph - N/A   Mostly Cloudy
2:30 PM 55.4 °F - 37.4 °F 51% 30.06 in 6.2 mi WNW 13.8 mph - N/A   Unknown
3:00 PM 55.4 °F - 35.6 °F 47% 30.06 in 6.2 mi NW 13.8 mph - N/A   Unknown
3:30 PM 55.4 °F - 35.6 °F 47% 30.06 in 6.2 mi WNW 15.0 mph - N/A   Unknown
4:00 PM 57.2 °F - 37.4 °F 48% 30.04 in 6.2 mi NW 12.7 mph - N/A   Unknown
4:30 PM 55.4 °F - 35.6 °F 47% 30.04 in 6.2 mi WNW 16.1 mph - N/A   Unknown
5:00 PM 57.2 °F - 35.6 °F 44% 30.04 in 6.2 mi WNW 16.1 mph - N/A   Unknown
5:30 PM 57.2 °F - 35.6 °F 44% 30.04 in 6.2 mi WNW 16.1 mph - N/A   Unknown
6:00 PM 57.2 °F - 35.6 °F 44% 30.04 in 6.2 mi WNW 17.3 mph - N/A   Unknown
6:30 PM 55.4 °F - 33.8 °F 44% 30.04 in 6.2 mi NW 17.3 mph - N/A   Unknown
7:00 PM 55.4 °F - 32.0 °F 41% 30.04 in 6.2 mi NW 16.1 mph - N/A   Unknown
7:30 PM 53.6 °F - 33.8 °F 47% 30.06 in 6.2 mi WNW 13.8 mph - N/A   Unknown
8:00 PM 51.8 °F - 33.8 °F 50% 30.06 in 6.2 mi WNW 12.7 mph - N/A   Unknown
8:30 PM 50.0 °F - 33.8 °F 54% 30.06 in 6.2 mi WNW 12.7 mph - N/A   Unknown
9:00 PM 46.4 °F 41.5 °F 33.8 °F 62% 30.09 in 6.2 mi WNW 10.4 mph - N/A   Unknown
9:30 PM 46.4 °F 41.1 °F 33.8 °F 62% 30.09 in 6.2 mi WNW 11.5 mph - N/A   Unknown
10:00 PM 46.4 °F 41.1 °F 33.8 °F 62% 30.09 in 6.2 mi WNW 11.5 mph - N/A   Unknown
10:30 PM 46.4 °F 41.1 °F 33.8 °F 62% 30.12 in 6.2 mi NW 11.5 mph - N/A   Unknown
11:00 PM 44.6 °F 40.2 °F 33.8 °F 66% 30.12 in 6.2 mi NW 8.1 mph - N/A   Unknown
11:30 PM 42.8 °F 37.5 °F 33.8 °F 70% 30.12 in 6.2 mi NW 9.2 mph - N/A   Unknown